Weather History for KBLF - October, 2013

Change the Weather History Date:

Friday, October 25, 2013

  Actual Average Record
Temperature  
Mean Temperature 34 °F 54 °F  
Max Temperature 38 °F 63 °F 78 °F (2012)
Min Temperature 30 °F 45 °F 22 °F (1962)
Degree Days  
Heating Degree Days 31 11  
Month to date heating degree days 196 213  
Since 1 July heating degree days 249 292  
Cooling Degree Days 0 0  
Month to date cooling degree days 32 16  
Year to date cooling degree days 938 848  
Moisture  
Dew Point 28 °F    
Average Humidity 74    
Maximum Humidity 89    
Minimum Humidity 59    
Precipitation  
Precipitation 0.04 in 0.08 in 1.66 in (2007)
Month to date precipitation 1.41 2.01  
Year to date precipitation 33.12 33.54  
Snow  
Snow 0.20 in - - ()
Month to date snowfall 0.2  
Since 1 July snowfall 0.2  
Since 1 September snowfall 0.2  
Snow Depth 0.00 in    
Sea Level Pressure  
Sea Level Pressure 30.29 in    
Wind  
Wind Speed 5 mph (WNW)    
Max Wind Speed 10 mph    
Max Gust Speed 16 mph    
Visibility 8 miles    
Events Snow    
T = Trace of Precipitation, MM = Missing Value Source: NWS Daily Summary

Daily Weather History Graph

Daily Weather History Graph

Search for Another Location

Airport or City:

Trip Planner

Search our weather history database for the weather conditions in past years. The results will help you decide how hot, cold, wet, or windy it might be!

Date:

Astronomy

Oct. 25, 2013 Rise Set
Actual Time 7:42 AM EDT 6:34 PM EDT
Civil Twilight 7:15 AM EDT 7:01 PM EDT
Nautical Twilight 6:45 AM EDT 7:31 PM EDT
Astronomical Twilight 6:15 AM EDT 8:01 PM EDT
Moon 11:54 PM EDT (10/25) 1:20 PM EDT (10/25)
Length of Visible Light 11h 45m
Length of Day
10h 52m
Waning Gibbous, 62% of the Moon is Illuminated
Oct 25
Waning Gibbous
Oct 26
Last Quarter
Nov 3
New
Nov 10
First Quarter
Nov 17
Full

Hourly Weather History & Observations

Time (EDT) Temp. Windchill Dew Point Humidity Pressure Visibility Wind Dir Wind Speed Gust Speed Precip Events Conditions
12:52 AM 35.1 °F 31.0 °F 30.9 °F 85% 30.19 in 6.0 mi West 4.6 mph - 0.00 in   Overcast
1:25 AM 35.6 °F 30.7 °F 30.2 °F 81% 30.17 in 1.8 mi West 5.8 mph - 0.00 in Snow Light Snow
1:45 AM 35.6 °F 31.7 °F 30.2 °F 81% 30.17 in 1.2 mi NW 4.6 mph - 0.01 in Snow Light Snow
1:52 AM 35.1 °F 30.1 °F 30.0 °F 82% 30.21 in 1.0 mi West 5.8 mph - 0.02 in Snow Light Snow
2:02 AM 35.6 °F 28.6 °F 30.2 °F 81% 30.18 in 2.0 mi West 9.2 mph - 0.00 in Snow Light Snow
2:06 AM 35.6 °F 29.2 °F 30.2 °F 81% 30.18 in 3.0 mi WNW 8.1 mph - 0.00 in Snow Light Snow
2:28 AM 35.6 °F 30.7 °F 30.2 °F 81% 30.18 in 9.0 mi WNW 5.8 mph - 0.00 in Snow Light Snow
2:52 AM 35.1 °F 31.0 °F 30.0 °F 82% 30.22 in 10.0 mi West 4.6 mph - 0.00 in   Overcast
3:05 AM 35.6 °F 31.7 °F 30.2 °F 81% 30.19 in 10.0 mi West 4.6 mph - N/A   Overcast
3:52 AM 34.0 °F 29.8 °F 30.0 °F 85% 30.23 in 10.0 mi WNW 4.6 mph - N/A   Overcast
4:22 AM 33.8 °F 29.6 °F 28.4 °F 81% 30.20 in 10.0 mi WNW 4.6 mph - N/A   Overcast
4:29 AM 33.8 °F 30.8 °F 28.4 °F 81% 30.21 in 10.0 mi WNW 3.5 mph - N/A   Overcast
4:45 AM 33.8 °F 30.8 °F 30.2 °F 87% 30.21 in 9.0 mi West 3.5 mph - 0.00 in Snow Light Snow
4:52 AM 34.0 °F 28.8 °F 28.9 °F 82% 30.24 in 2.5 mi WNW 5.8 mph - 0.01 in Snow Light Snow
4:58 AM 33.8 °F 28.6 °F 28.4 °F 81% 30.21 in 1.0 mi WNW 5.8 mph - 0.00 in Snow Light Snow
5:05 AM 33.8 °F 26.4 °F 28.4 °F 81% 30.22 in 2.0 mi WNW 9.2 mph - 0.00 in Snow Light Snow
5:13 AM 33.8 °F 27.7 °F 28.4 °F 81% 30.22 in 9.0 mi WNW 6.9 mph - 0.00 in Snow Light Snow
5:50 AM 33.8 °F 27.7 °F 28.4 °F 81% 30.23 in 1.8 mi Variable 6.9 mph - 0.00 in Snow Light Snow
5:52 AM 33.1 °F 28.7 °F 28.9 °F 85% 30.27 in 1.2 mi North 4.6 mph - 0.01 in Snow Light Snow
6:04 AM 33.8 °F 30.8 °F 28.4 °F 81% 30.24 in 3.0 mi Variable 3.5 mph - 0.00 in Snow Light Snow
6:25 AM 33.8 °F - 28.4 °F 81% 30.24 in 2.5 mi Calm Calm - 0.00 in Snow Light Snow
6:32 AM 33.8 °F - 28.4 °F 81% 30.25 in 3.0 mi Calm Calm - 0.00 in Snow Light Snow
6:47 AM 33.8 °F 29.6 °F 28.4 °F 81% 30.25 in 9.0 mi WNW 4.6 mph - 0.00 in   Overcast
6:49 AM 33.8 °F 29.6 °F 28.4 °F 81% 30.25 in 9.0 mi NW 4.6 mph - 0.00 in   Overcast
6:52 AM 33.1 °F - 28.0 °F 82% 30.30 in 9.0 mi Calm Calm - 0.00 in   Overcast
7:18 AM 33.8 °F 30.8 °F 28.4 °F 81% 30.26 in 10.0 mi WNW 3.5 mph - N/A   Overcast
7:38 AM 33.8 °F - 28.4 °F 81% 30.27 in 10.0 mi Calm Calm - N/A   Overcast
7:52 AM 33.1 °F 30.0 °F 28.0 °F 82% 30.32 in 10.0 mi WNW 3.5 mph - N/A   Overcast
8:01 AM 33.8 °F 29.6 °F 28.4 °F 81% 30.27 in 8.0 mi NW 4.6 mph - N/A   Overcast
8:13 AM 33.8 °F 29.6 °F 28.4 °F 81% 30.28 in 9.0 mi NW 4.6 mph - N/A   Overcast
8:20 AM 33.8 °F 29.6 °F 28.4 °F 81% 30.28 in 10.0 mi NW 4.6 mph - N/A   Overcast
8:52 AM 33.1 °F 27.7 °F 28.0 °F 82% 30.34 in 10.0 mi WNW 5.8 mph - N/A   Overcast
9:52 AM 34.0 °F 26.6 °F 28.0 °F 79% 30.37 in 9.0 mi WNW 9.2 mph - 0.00 in Snow Light Snow
10:04 AM 33.8 °F 27.7 °F 28.4 °F 81% 30.33 in 9.0 mi NW 6.9 mph - 0.00 in   Overcast
10:26 AM 33.8 °F 27.7 °F 28.4 °F 81% 30.33 in 10.0 mi WNW 6.9 mph - 0.00 in   Overcast
10:49 AM 33.8 °F 27.0 °F 28.4 °F 81% 30.34 in 9.0 mi WNW 8.1 mph - 0.00 in   Overcast
10:52 AM 34.0 °F 29.8 °F 28.0 °F 79% 30.38 in 6.0 mi Variable 4.6 mph - 0.00 in Snow Light Snow
11:05 AM 33.8 °F 27.7 °F 28.4 °F 81% 30.34 in 7.0 mi NW 6.9 mph - 0.00 in   Overcast
11:52 AM 35.1 °F 29.3 °F 28.0 °F 76% 30.40 in 10.0 mi NW 6.9 mph - 0.00 in   Overcast
11:59 AM 35.6 °F 30.7 °F 28.4 °F 75% 30.35 in 10.0 mi WNW 5.8 mph - N/A   Overcast
12:52 PM 35.1 °F 29.3 °F 26.1 °F 70% 30.40 in 10.0 mi NW 6.9 mph - N/A   Overcast
1:12 PM 35.6 °F 29.9 °F 26.6 °F 70% 30.35 in 10.0 mi NW 6.9 mph - N/A   Overcast
1:25 PM 37.4 °F 32.1 °F 26.6 °F 65% 30.34 in 10.0 mi North 6.9 mph - N/A   Overcast
1:52 PM 36.0 °F 30.3 °F 26.1 °F 67% 30.37 in 10.0 mi NW 6.9 mph - N/A   Overcast
2:52 PM 37.0 °F 33.3 °F 26.1 °F 65% 30.36 in 10.0 mi WNW 4.6 mph - N/A   Overcast
3:52 PM 37.0 °F 31.6 °F 25.0 °F 62% 30.36 in 10.0 mi NW 6.9 mph - N/A   Overcast
4:52 PM 37.0 °F 33.3 °F 26.1 °F 65% 30.36 in 10.0 mi Variable 4.6 mph - N/A   Overcast
5:16 PM 37.4 °F 33.8 °F 26.6 °F 65% 30.32 in 10.0 mi NNW 4.6 mph - N/A   Overcast
5:47 PM 37.4 °F 34.9 °F 24.8 °F 60% 30.31 in 10.0 mi NW 3.5 mph - N/A   Overcast
5:52 PM 37.0 °F 34.5 °F 25.0 °F 62% 30.36 in 10.0 mi NNW 3.5 mph - N/A   Overcast
6:29 PM 35.6 °F - 24.8 °F 65% 30.32 in 10.0 mi Calm Calm - N/A   Mostly Cloudy
6:52 PM 36.0 °F 33.3 °F 23.0 °F 59% 30.36 in 10.0 mi Variable 3.5 mph - N/A   Overcast
7:52 PM 36.0 °F 33.3 °F 26.1 °F 67% 30.36 in 10.0 mi WNW 3.5 mph - N/A   Overcast
9:52 PM 30.9 °F 26.2 °F 24.1 °F 76% 30.37 in 10.0 mi WSW 4.6 mph - N/A   Clear
10:52 PM 30.0 °F 24.1 °F 24.1 °F 79% 30.38 in 10.0 mi WSW 5.8 mph - N/A   Clear
11:52 PM 30.0 °F 26.5 °F 24.1 °F 79% 30.36 in 10.0 mi WSW 3.5 mph - N/A   Clear